Time,TemperatureF,DewpointF,PressureIn,WindDirection,WindDirectionDegrees,WindSpeedMPH,WindSpeedGustMPH,Humidity,HourlyPrecipIn,Conditions,Clouds,dailyrainin,SoftwareType,DateUTC
2013-07-28 00:06:00,67.9,66.1,29.54,SSW,202,2.0,3.0,94,0.07,,,0.00,Wunderground v.1.15,2013-07-28 04:06:00,
2013-07-28 00:10:00,67.7,65.9,29.54,SSW,202,1.0,1.0,94,0.05,,,0.00,Wunderground v.1.15,2013-07-28 04:10:00,
2013-07-28 00:15:00,67.6,65.8,29.53,SSW,202,0.0,1.0,94,0.04,,,0.00,Wunderground v.1.15,2013-07-28 04:15:00,
2013-07-28 00:20:00,67.5,65.7,29.53,SSW,202,0.0,0.0,94,0.00,,,0.00,Wunderground v.1.15,2013-07-28 04:20:00,
2013-07-28 00:30:00,66.9,65.4,29.54,SSW,202,0.0,0.0,95,0.00,,,0.00,Wunderground v.1.15,2013-07-28 04:30:00,
2013-07-28 00:35:00,66.7,65.2,29.54,SSW,202,0.0,0.0,95,0.00,,,0.00,Wunderground v.1.15,2013-07-28 04:35:00,
2013-07-28 00:40:00,66.4,64.9,29.54,SSW,202,0.0,0.0,95,0.00,,,0.00,Wunderground v.1.15,2013-07-28 04:40:00,
2013-07-28 00:50:00,65.9,64.4,29.54,SSW,202,0.0,0.0,95,0.00,,,0.00,Wunderground v.1.15,2013-07-28 04:50:00,
2013-07-28 01:00:00,65.4,63.9,29.54,SSW,202,0.0,0.0,95,0.00,,,0.00,Wunderground v.1.15,2013-07-28 05:00:00,
2013-07-28 01:06:00,65.2,63.7,29.54,SSW,202,0.0,0.0,95,0.00,,,0.00,Wunderground v.1.15,2013-07-28 05:06:00,
2013-07-28 01:15:00,64.8,63.3,29.53,SSW,202,0.0,0.0,95,0.00,,,0.00,Wunderground v.1.15,2013-07-28 05:15:00,
2013-07-28 01:20:00,64.6,63.4,29.53,SSW,202,0.0,0.0,96,0.00,,,0.00,Wunderground v.1.15,2013-07-28 05:20:00,
2013-07-28 01:25:00,64.6,63.4,29.53,SSW,202,0.0,0.0,96,0.00,,,0.00,Wunderground v.1.15,2013-07-28 05:25:00,
2013-07-28 01:30:00,64.7,63.5,29.53,SSW,202,0.0,0.0,96,0.00,,,0.00,Wunderground v.1.15,2013-07-28 05:30:00,
2013-07-28 01:40:00,64.9,64.0,29.53,SSW,202,1.0,1.0,97,0.00,,,0.00,Wunderground v.1.15,2013-07-28 05:40:00,
2013-07-28 01:45:00,64.9,64.0,29.53,SSW,202,1.0,1.0,97,0.00,,,0.00,Wunderground v.1.15,2013-07-28 05:45:00,
2013-07-28 02:00:00,65.8,64.9,29.53,South,190,3.0,4.0,97,0.00,,,0.00,Wunderground v.1.15,2013-07-28 06:00:00,
2013-07-28 02:06:00,66.5,65.6,29.53,SSW,213,4.0,5.0,97,0.00,,,0.00,Wunderground v.1.15,2013-07-28 06:06:00,
2013-07-28 02:15:00,67.4,66.2,29.52,SSW,213,4.0,5.0,96,0.00,,,0.00,Wunderground v.1.15,2013-07-28 06:15:00,
2013-07-28 02:20:00,67.7,66.2,29.52,SSW,212,4.0,4.0,95,0.00,,,0.00,Wunderground v.1.15,2013-07-28 06:20:00,
2013-07-28 02:30:00,68.1,66.0,29.52,SSW,210,4.0,5.0,93,0.00,,,0.00,Wunderground v.1.15,2013-07-28 06:30:00,
2013-07-28 02:40:00,68.2,66.1,29.51,SSW,211,4.0,7.0,93,0.00,,,0.00,Wunderground v.1.15,2013-07-28 06:40:00,
2013-07-28 02:45:00,68.3,65.9,29.52,SSW,210,4.0,7.0,92,0.00,,,0.00,Wunderground v.1.15,2013-07-28 06:45:00,
2013-07-28 02:55:00,68.4,66.0,29.52,South,188,4.0,4.0,92,0.00,,,0.00,Wunderground v.1.15,2013-07-28 06:55:00,
2013-07-28 03:06:00,68.4,66.0,29.52,South,183,4.0,5.0,92,0.00,,,0.00,Wunderground v.1.15,2013-07-28 07:06:00,
2013-07-28 03:15:00,68.5,66.1,29.53,South,184,5.0,8.0,92,0.00,,,0.00,Wunderground v.1.15,2013-07-28 07:15:00,
2013-07-28 03:25:00,68.5,66.1,29.53,South,188,4.0,5.0,92,0.00,,,0.00,Wunderground v.1.15,2013-07-28 07:25:00,
2013-07-28 03:35:00,68.4,66.0,29.53,South,180,3.0,4.0,92,0.00,,,0.00,Wunderground v.1.15,2013-07-28 07:35:00,
2013-07-28 03:45:00,68.4,65.7,29.53,SW,219,4.0,4.0,91,0.00,,,0.00,Wunderground v.1.15,2013-07-28 07:45:00,
2013-07-28 03:55:00,68.3,65.6,29.53,SSW,198,3.0,4.0,91,0.00,,,0.00,Wunderground v.1.15,2013-07-28 07:55:00,
2013-07-28 04:06:00,68.1,65.4,29.53,SSW,192,3.0,4.0,91,0.00,,,0.00,Wunderground v.1.15,2013-07-28 08:06:00,
2013-07-28 04:15:00,67.9,65.2,29.53,SSW,194,2.0,4.0,91,0.00,,,0.00,Wunderground v.1.15,2013-07-28 08:15:00,
2013-07-28 04:25:00,67.5,64.8,29.54,SSW,201,3.0,3.0,91,0.00,,,0.00,Wunderground v.1.15,2013-07-28 08:25:00,
2013-07-28 04:30:00,67.3,64.6,29.54,SW,219,3.0,4.0,91,0.00,,,0.00,Wunderground v.1.15,2013-07-28 08:30:00,
2013-07-28 04:40:00,67.1,64.7,29.54,SSW,201,4.0,4.0,92,0.00,,,0.00,Wunderground v.1.15,2013-07-28 08:40:00,
2013-07-28 04:50:00,67.3,64.6,29.55,SW,225,5.0,5.0,91,0.00,,,0.00,Wunderground v.1.15,2013-07-28 08:50:00,
2013-07-28 04:55:00,67.2,64.5,29.55,SSW,213,4.0,5.0,91,0.00,,,0.00,Wunderground v.1.15,2013-07-28 08:55:00,
2013-07-28 05:06:00,67.3,64.3,29.56,SW,229,5.0,7.0,90,0.00,,,0.00,Wunderground v.1.15,2013-07-28 09:06:00,
2013-07-28 05:15:00,67.3,64.3,29.56,SSW,205,5.0,5.0,90,0.00,,,0.00,Wunderground v.1.15,2013-07-28 09:15:00,
2013-07-28 05:20:00,67.3,63.9,29.56,SW,234,5.0,5.0,89,0.00,,,0.00,Wunderground v.1.15,2013-07-28 09:20:00,
2013-07-28 05:30:00,67.3,63.9,29.56,SSW,204,4.0,6.0,89,0.00,,,0.00,Wunderground v.1.15,2013-07-28 09:30:00,
2013-07-28 05:40:00,67.2,63.8,29.56,SW,215,4.0,4.0,89,0.00,,,0.00,Wunderground v.1.15,2013-07-28 09:40:00,
2013-07-28 05:45:00,67.1,63.7,29.56,SSW,213,4.0,4.0,89,0.00,,,0.00,Wunderground v.1.15,2013-07-28 09:45:00,
2013-07-28 05:50:00,67.0,63.6,29.57,SSW,203,4.0,4.0,89,0.00,,,0.00,Wunderground v.1.15,2013-07-28 09:50:00,
2013-07-28 06:00:00,66.7,63.7,29.57,SW,217,4.0,4.0,90,0.00,,,0.00,Wunderground v.1.15,2013-07-28 10:00:00,
2013-07-28 06:06:00,66.6,63.6,29.56,SSW,207,3.0,4.0,90,0.00,,,0.00,Wunderground v.1.15,2013-07-28 10:06:00,
2013-07-28 06:15:00,66.4,63.4,29.55,SW,217,3.0,3.0,90,0.00,,,0.00,Wunderground v.1.15,2013-07-28 10:15:00,
2013-07-28 06:25:00,66.3,63.3,29.57,SSW,209,2.0,3.0,90,0.00,,,0.00,Wunderground v.1.15,2013-07-28 10:25:00,
2013-07-28 06:35:00,66.1,63.4,29.58,SSW,209,2.0,2.0,91,0.00,,,0.00,Wunderground v.1.15,2013-07-28 10:35:00,
2013-07-28 06:45:00,65.9,63.2,29.58,SSW,209,2.0,3.0,91,0.00,,,0.00,Wunderground v.1.15,2013-07-28 10:45:00,
2013-07-28 06:55:00,65.8,63.4,29.59,SSW,207,3.0,4.0,92,0.00,,,0.00,Wunderground v.1.15,2013-07-28 10:55:00,
2013-07-28 07:10:00,65.7,63.3,29.59,SSW,213,2.0,2.0,92,0.00,,,0.00,Wunderground v.1.15,2013-07-28 11:10:00,
2013-07-28 07:15:00,65.7,63.3,29.59,SSW,213,0.0,2.0,92,0.00,,,0.00,Wunderground v.1.15,2013-07-28 11:15:00,
2013-07-28 07:20:00,65.7,63.3,29.59,SSW,192,1.0,4.0,92,0.00,,,0.00,Wunderground v.1.15,2013-07-28 11:20:00,
2013-07-28 07:30:00,65.9,63.8,29.60,SSW,207,2.0,2.0,93,0.00,,,0.00,Wunderground v.1.15,2013-07-28 11:30:00,
2013-07-28 07:35:00,65.9,63.8,29.58,SSW,207,1.0,2.0,93,0.00,,,0.00,Wunderground v.1.15,2013-07-28 11:35:00,
2013-07-28 07:45:00,65.9,63.5,29.60,SSW,207,2.0,2.0,92,0.00,,,0.00,Wunderground v.1.15,2013-07-28 11:45:00,
2013-07-28 07:55:00,65.9,63.8,29.60,SSW,207,1.0,3.0,93,0.00,,,0.00,Wunderground v.1.15,2013-07-28 11:55:00,
2013-07-28 08:10:00,66.0,63.6,29.60,SSW,211,2.0,3.0,92,0.00,,,0.00,Wunderground v.1.15,2013-07-28 12:10:00,
2013-07-28 08:15:00,66.0,63.6,29.60,SSW,211,2.0,3.0,92,0.00,,,0.00,Wunderground v.1.15,2013-07-28 12:15:00,
2013-07-28 08:25:00,66.1,63.7,29.61,SW,214,3.0,4.0,92,0.00,,,0.00,Wunderground v.1.15,2013-07-28 12:25:00,
2013-07-28 08:35:00,66.2,63.8,29.60,SW,214,1.0,3.0,92,0.00,,,0.00,Wunderground v.1.15,2013-07-28 12:35:00,
2013-07-28 08:45:00,66.3,63.9,29.60,SW,214,1.0,1.0,92,0.00,,,0.00,Wunderground v.1.15,2013-07-28 12:45:00,
2013-07-28 08:55:00,66.6,63.9,29.61,WSW,249,1.0,2.0,91,0.00,,,0.00,Wunderground v.1.15,2013-07-28 12:55:00,
2013-07-28 09:06:00,66.7,63.4,29.61,WSW,255,1.0,3.0,89,0.00,,,0.00,Wunderground v.1.15,2013-07-28 13:06:00,
2013-07-28 09:15:00,67.2,64.2,29.61,West,273,2.0,2.0,90,0.00,,,0.00,Wunderground v.1.15,2013-07-28 13:15:00,
2013-07-28 09:25:00,67.2,63.5,29.61,SSW,210,2.0,4.0,88,0.00,,,0.00,Wunderground v.1.15,2013-07-28 13:25:00,
2013-07-28 09:35:00,67.0,63.3,29.61,South,184,2.0,2.0,88,0.00,,,0.00,Wunderground v.1.15,2013-07-28 13:35:00,
2013-07-28 09:40:00,67.0,63.3,29.61,WSW,241,2.0,2.0,88,0.00,,,0.00,Wunderground v.1.15,2013-07-28 13:40:00,
2013-07-28 09:50:00,67.2,63.2,29.62,West,264,2.0,3.0,87,0.00,,,0.00,Wunderground v.1.15,2013-07-28 13:50:00,
2013-07-28 10:00:00,67.6,61.9,29.62,NW,304,2.0,4.0,82,0.00,,,0.00,Wunderground v.1.15,2013-07-28 14:00:00,
2013-07-28 10:10:00,68.0,60.9,29.62,WSW,245,2.0,2.0,78,0.00,,,0.00,Wunderground v.1.15,2013-07-28 14:10:00,
2013-07-28 10:20:00,68.2,61.1,29.62,WNW,298,2.0,5.0,78,0.00,,,0.00,Wunderground v.1.15,2013-07-28 14:20:00,
2013-07-28 10:25:00,68.5,61.0,29.63,WSW,247,2.0,5.0,77,0.00,,,0.00,Wunderground v.1.15,2013-07-28 14:25:00,
2013-07-28 10:30:00,68.9,60.3,29.63,SW,234,2.0,2.0,74,0.00,,,0.00,Wunderground v.1.15,2013-07-28 14:30:00,
2013-07-28 10:40:00,69.8,60.8,29.62,WSW,251,2.0,2.0,73,0.00,,,0.00,Wunderground v.1.15,2013-07-28 14:40:00,
2013-07-28 10:50:00,70.4,59.7,29.62,WNW,282,2.0,5.0,69,0.00,,,0.00,Wunderground v.1.15,2013-07-28 14:50:00,
2013-07-28 10:55:00,70.7,60.4,29.62,NW,305,2.0,5.0,70,0.00,,,0.00,Wunderground v.1.15,2013-07-28 14:55:00,
2013-07-28 11:06:00,70.9,59.0,29.63,West,259,2.0,3.0,66,0.00,,,0.00,Wunderground v.1.15,2013-07-28 15:06:00,
2013-07-28 11:15:00,71.1,60.4,29.63,SSW,192,2.0,6.0,69,0.00,,,0.00,Wunderground v.1.15,2013-07-28 15:15:00,
2013-07-28 11:20:00,71.4,60.7,29.63,SW,221,2.0,2.0,69,0.00,,,0.00,Wunderground v.1.15,2013-07-28 15:20:00,
2013-07-28 11:30:00,71.7,60.6,29.63,SSW,206,2.0,4.0,68,0.00,,,0.00,Wunderground v.1.15,2013-07-28 15:30:00,
2013-07-28 11:40:00,71.7,59.3,29.63,SW,221,2.0,2.0,65,0.00,,,0.00,Wunderground v.1.15,2013-07-28 15:40:00,
2013-07-28 11:50:00,71.2,59.3,29.64,SW,225,2.0,2.0,66,0.00,,,0.00,Wunderground v.1.15,2013-07-28 15:50:00,
2013-07-28 11:55:00,70.9,59.4,29.63,WNW,291,2.0,2.0,67,0.00,,,0.00,Wunderground v.1.15,2013-07-28 15:55:00,
2013-07-28 12:06:00,71.0,60.7,29.64,WSW,255,2.0,2.0,70,0.00,,,0.00,Wunderground v.1.15,2013-07-28 16:06:00,
2013-07-28 12:15:00,71.2,58.8,29.64,WNW,292,3.0,3.0,65,0.00,,,0.00,Wunderground v.1.15,2013-07-28 16:15:00,
2013-07-28 12:20:00,71.0,60.3,29.64,WNW,292,2.0,2.0,69,0.00,,,0.00,Wunderground v.1.15,2013-07-28 16:20:00,
2013-07-28 12:30:00,70.7,59.6,29.64,West,280,2.0,2.0,68,0.00,,,0.00,Wunderground v.1.15,2013-07-28 16:30:00,
2013-07-28 12:35:00,71.1,60.0,29.64,West,281,2.0,3.0,68,0.00,,,0.00,Wunderground v.1.15,2013-07-28 16:35:00,
2013-07-28 12:40:00,71.9,60.3,29.64,NNW,329,2.0,2.0,67,0.00,,,0.00,Wunderground v.1.15,2013-07-28 16:40:00,
2013-07-28 12:50:00,72.4,58.6,29.64,West,261,2.0,2.0,62,0.00,,,0.00,Wunderground v.1.15,2013-07-28 16:50:00,
2013-07-28 13:00:00,71.9,59.9,29.64,WNW,285,2.0,2.0,66,0.00,,,0.00,Wunderground v.1.15,2013-07-28 17:00:00,
2013-07-28 13:10:00,71.8,59.8,29.64,SSW,209,2.0,2.0,66,0.00,,,0.00,Wunderground v.1.15,2013-07-28 17:10:00,
2013-07-28 13:15:00,72.0,59.6,29.64,WSW,239,3.0,3.0,65,0.00,,,0.00,Wunderground v.1.15,2013-07-28 17:15:00,
2013-07-28 13:25:00,72.5,60.5,29.64,WSW,254,1.0,3.0,66,0.00,,,0.00,Wunderground v.1.15,2013-07-28 17:25:00,
2013-07-28 13:30:00,72.5,59.2,29.64,West,261,1.0,3.0,63,0.00,,,0.00,Wunderground v.1.15,2013-07-28 17:30:00,
2013-07-28 13:40:00,72.4,60.4,29.64,West,269,2.0,2.0,66,0.00,,,0.00,Wunderground v.1.15,2013-07-28 17:40:00,
2013-07-28 13:50:00,72.7,60.3,29.64,SW,228,1.0,1.0,65,0.00,,,0.00,Wunderground v.1.15,2013-07-28 17:50:00,
2013-07-28 14:00:00,72.8,61.6,29.64,SW,227,1.0,2.0,68,0.00,,,0.00,Wunderground v.1.15,2013-07-28 18:00:00,
2013-07-28 14:06:00,72.9,61.3,29.64,NE,46,2.0,2.0,67,0.00,,,0.00,Wunderground v.1.15,2013-07-28 18:06:00,
2013-07-28 14:15:00,73.3,62.9,29.63,West,271,2.0,2.0,70,0.00,,,0.00,Wunderground v.1.15,2013-07-28 18:15:00,
2013-07-28 14:25:00,72.9,60.0,29.63,WNW,297,1.0,2.0,64,0.00,,,0.00,Wunderground v.1.15,2013-07-28 18:25:00,
2013-07-28 14:30:00,72.8,62.0,29.64,West,277,1.0,4.0,69,0.00,,,0.00,Wunderground v.1.15,2013-07-28 18:30:00,
2013-07-28 14:40:00,71.2,60.5,29.63,NNE,24,3.0,3.0,69,0.00,,,0.00,Wunderground v.1.15,2013-07-28 18:40:00,
2013-07-28 14:45:00,70.9,59.8,29.63,WSW,253,1.0,3.0,68,0.00,,,0.00,Wunderground v.1.15,2013-07-28 18:45:00,
2013-07-28 14:55:00,71.7,61.8,29.63,NNE,13,1.0,2.0,71,0.00,,,0.00,Wunderground v.1.15,2013-07-28 18:55:00,
2013-07-28 15:06:00,72.0,61.7,29.64,West,278,1.0,1.0,70,0.00,,,0.00,Wunderground v.1.15,2013-07-28 19:06:00,
2013-07-28 15:15:00,72.4,61.7,29.64,WNW,286,2.0,4.0,69,0.00,,,0.00,Wunderground v.1.15,2013-07-28 19:15:00,
2013-07-28 15:20:00,71.7,59.7,29.63,NNW,338,2.0,2.0,66,0.00,,,0.00,Wunderground v.1.15,2013-07-28 19:20:00,
2013-07-28 15:30:00,71.7,62.2,29.63,ENE,65,2.0,2.0,72,0.00,,,0.00,Wunderground v.1.15,2013-07-28 19:30:00,
2013-07-28 15:40:00,72.2,61.5,29.64,West,271,1.0,2.0,69,0.00,,,0.00,Wunderground v.1.15,2013-07-28 19:40:00,
2013-07-28 15:50:00,72.7,61.9,29.64,WSW,256,2.0,2.0,69,0.00,,,0.00,Wunderground v.1.15,2013-07-28 19:50:00,
2013-07-28 15:55:00,72.6,60.6,29.64,NNE,27,2.0,3.0,66,0.00,,,0.00,Wunderground v.1.15,2013-07-28 19:55:00,
2013-07-28 16:06:00,72.3,61.6,29.64,North,355,2.0,2.0,69,0.00,,,0.00,Wunderground v.1.15,2013-07-28 20:06:00,
2013-07-28 16:15:00,72.9,60.9,29.64,NW,311,2.0,2.0,66,0.00,,,0.00,Wunderground v.1.15,2013-07-28 20:15:00,
2013-07-28 16:25:00,72.1,60.1,29.64,NNE,20,2.0,3.0,66,0.00,,,0.00,Wunderground v.1.15,2013-07-28 20:25:00,
2013-07-28 16:35:00,71.0,59.5,29.64,SSE,150,3.0,3.0,67,0.00,,,0.00,Wunderground v.1.15,2013-07-28 20:35:00,
2013-07-28 16:45:00,71.0,60.7,29.64,NNE,17,2.0,2.0,70,0.00,,,0.00,Wunderground v.1.15,2013-07-28 20:45:00,
2013-07-28 16:55:00,71.6,60.5,29.64,NNE,12,2.0,2.0,68,0.00,,,0.00,Wunderground v.1.15,2013-07-28 20:55:00,
2013-07-28 17:10:00,71.2,60.9,29.64,West,274,1.0,1.0,70,0.00,,,0.00,Wunderground v.1.15,2013-07-28 21:10:00,
2013-07-28 17:15:00,71.0,59.1,29.64,West,275,1.0,1.0,66,0.00,,,0.00,Wunderground v.1.15,2013-07-28 21:15:00,
2013-07-28 17:25:00,72.0,58.7,29.64,WNW,288,2.0,2.0,63,0.00,,,0.00,Wunderground v.1.15,2013-07-28 21:25:00,
2013-07-28 17:35:00,72.6,59.3,29.65,South,179,1.0,2.0,63,0.00,,,0.00,Wunderground v.1.15,2013-07-28 21:35:00,
2013-07-28 17:45:00,73.0,59.2,29.65,West,265,2.0,2.0,62,0.00,,,0.00,Wunderground v.1.15,2013-07-28 21:45:00,
2013-07-28 17:55:00,73.4,59.1,29.65,SSW,210,2.0,6.0,61,0.00,,,0.00,Wunderground v.1.15,2013-07-28 21:55:00,
2013-07-28 18:06:00,72.2,58.5,29.65,South,184,2.0,2.0,62,0.00,,,0.00,Wunderground v.1.15,2013-07-28 22:06:00,
2013-07-28 18:15:00,71.5,58.2,29.65,ESE,115,2.0,5.0,63,0.00,,,0.00,Wunderground v.1.15,2013-07-28 22:15:00,
2013-07-28 18:25:00,71.9,58.6,29.65,West,269,2.0,3.0,63,0.00,,,0.00,Wunderground v.1.15,2013-07-28 22:25:00,
2013-07-28 18:30:00,72.1,58.4,29.65,WSW,255,1.0,1.0,62,0.00,,,0.00,Wunderground v.1.15,2013-07-28 22:30:00,
2013-07-28 18:40:00,71.2,57.1,29.65,SSW,213,2.0,2.0,61,0.00,,,0.00,Wunderground v.1.15,2013-07-28 22:40:00,
2013-07-28 18:50:00,70.6,57.4,29.66,SSW,198,2.0,2.0,63,0.00,,,0.00,Wunderground v.1.15,2013-07-28 22:50:00,
2013-07-28 18:55:00,70.3,57.5,29.66,SSW,192,1.0,2.0,64,0.00,,,0.00,Wunderground v.1.15,2013-07-28 22:55:00,
2013-07-28 19:06:00,69.8,58.8,29.66,SSW,213,1.0,7.0,68,0.00,,,0.00,Wunderground v.1.15,2013-07-28 23:06:00,
2013-07-28 19:15:00,69.4,57.1,29.66,SSW,206,3.0,4.0,65,0.00,,,0.00,Wunderground v.1.15,2013-07-28 23:15:00,
2013-07-28 19:25:00,69.0,57.6,29.67,SW,218,2.0,3.0,67,0.00,,,0.00,Wunderground v.1.15,2013-07-28 23:25:00,
2013-07-28 19:35:00,68.8,57.0,29.67,SSW,202,2.0,2.0,66,0.00,,,0.00,Wunderground v.1.15,2013-07-28 23:35:00,
2013-07-28 19:46:00,69.5,58.1,29.67,SSW,202,1.0,2.0,67,0.00,,,0.00,Wunderground v.1.15,2013-07-28 23:46:00,
2013-07-28 19:55:00,70.1,57.4,29.67,WSW,250,0.0,2.0,64,0.00,,,0.00,Wunderground v.1.15,2013-07-28 23:55:00,
2013-07-28 20:00:00,70.1,57.8,29.67,WSW,250,1.0,1.0,65,0.00,,,0.00,Wunderground v.1.15,2013-07-29 00:00:00,
2013-07-28 20:06:00,69.6,56.9,29.67,SSW,197,1.0,1.0,64,0.00,,,0.00,Wunderground v.1.15,2013-07-29 00:06:00,
2013-07-28 20:15:00,69.0,57.2,29.67,South,172,1.0,5.0,66,0.00,,,0.00,Wunderground v.1.15,2013-07-29 00:15:00,
2013-07-28 20:20:00,68.5,56.3,29.67,SSW,210,1.0,1.0,65,0.00,,,0.00,Wunderground v.1.15,2013-07-29 00:20:00,
2013-07-28 20:30:00,67.9,55.7,29.67,SW,223,2.0,3.0,65,0.00,,,0.00,Wunderground v.1.15,2013-07-29 00:30:00,
2013-07-28 20:40:00,67.5,55.7,29.67,SW,217,3.0,3.0,66,0.00,,,0.00,Wunderground v.1.15,2013-07-29 00:40:00,
2013-07-28 20:50:00,67.0,56.5,29.67,SW,218,1.0,1.0,69,0.00,,,0.00,Wunderground v.1.15,2013-07-29 00:50:00,
2013-07-28 21:00:00,66.5,56.0,29.67,SSW,210,1.0,1.0,69,0.00,,,0.00,Wunderground v.1.15,2013-07-29 01:00:00,
2013-07-28 21:06:00,66.2,56.1,29.68,SSW,210,2.0,2.0,70,0.00,,,0.00,Wunderground v.1.15,2013-07-29 01:06:00,
2013-07-28 21:15:00,65.7,56.8,29.68,SSW,210,1.0,1.0,73,0.00,,,0.00,Wunderground v.1.15,2013-07-29 01:15:00,
2013-07-28 21:20:00,65.5,57.7,29.68,SSW,210,0.0,0.0,76,0.00,,,0.00,Wunderground v.1.15,2013-07-29 01:20:00,
2013-07-28 21:30:00,64.9,58.2,29.69,SSW,210,0.0,0.0,79,0.00,,,0.00,Wunderground v.1.15,2013-07-29 01:30:00,
2013-07-28 21:45:00,64.0,58.1,29.69,SSW,210,0.0,0.0,81,0.00,,,0.00,Wunderground v.1.15,2013-07-29 01:45:00,
2013-07-28 21:50:00,63.9,58.3,29.69,SSW,210,0.0,0.0,82,0.00,,,0.00,Wunderground v.1.15,2013-07-29 01:50:00,
2013-07-28 22:00:00,63.6,58.3,29.69,SSW,210,0.0,1.0,83,0.00,,,0.00,Wunderground v.1.15,2013-07-29 02:00:00,
2013-07-28 22:06:00,63.5,58.6,29.69,SSW,210,0.0,1.0,84,0.00,,,0.00,Wunderground v.1.15,2013-07-29 02:06:00,
2013-07-28 22:15:00,63.4,58.5,29.70,SSW,210,0.0,2.0,84,0.00,,,0.00,Wunderground v.1.15,2013-07-29 02:15:00,
2013-07-28 22:25:00,63.5,58.2,29.71,SSW,210,1.0,1.0,83,0.00,,,0.00,Wunderground v.1.15,2013-07-29 02:25:00,
2013-07-28 22:45:00,64.1,58.1,29.71,WNW,289,2.0,2.0,81,0.00,,,0.00,Wunderground v.1.15,2013-07-29 02:45:00,
2013-07-28 22:55:00,63.7,58.4,29.71,WNW,289,0.0,1.0,83,0.00,,,0.00,Wunderground v.1.15,2013-07-29 02:55:00,
2013-07-28 23:10:00,62.9,58.3,29.71,WNW,289,0.0,0.0,85,0.00,,,0.00,Wunderground v.1.15,2013-07-29 03:10:00,
2013-07-28 23:15:00,62.5,57.9,29.71,WNW,289,0.0,2.0,85,0.00,,,0.00,Wunderground v.1.15,2013-07-29 03:15:00,
2013-07-28 23:20:00,62.1,57.5,29.71,WNW,289,1.0,1.0,85,0.00,,,0.00,Wunderground v.1.15,2013-07-29 03:20:00,
2013-07-28 23:35:00,61.8,56.9,29.70,SSW,209,2.0,4.0,84,0.00,,,0.00,Wunderground v.1.15,2013-07-29 03:35:00,
2013-07-28 23:45:00,62.0,57.1,29.71,SSW,205,3.0,3.0,84,0.00,,,0.00,Wunderground v.1.15,2013-07-29 03:45:00,
2013-07-28 23:55:00,61.8,56.6,29.71,SSW,213,3.0,5.0,83,0.00,,,0.00,Wunderground v.1.15,2013-07-29 03:55:00,